Location: Newark
(25.6108°S, 54.5803°W)
Time: 05:10:30
(UTC+00:00)

deb Explorer IX - Pass Details

Date: 29 October 2020
Orbit: 538 x 1104 km, 38.8° (Epoch: 29 November)

Event Time Altitude Azimuth Distance (km) Brightness Sun altitude
Rises 22:40:43 0° 241° (WSW) 3,125 ? -11.0°
Reaches altitude 10° 22:44:13 10° 219° (SW) 2,086 ? -11.8°
Maximum altitude 22:47:03 15° 182° (S) 1,670 ? -12.4°
Drops below altitude 10° 22:49:43 10° 145° (SE) 1,928 ? -12.9°
Enters shadow 22:51:54 - 126° (SE) 2,498 ? -13.4°
Sets 22:52:45 0° 121° (ESE) 2,761 - -13.5°
